Theta_e
311 310 310 310 310 309 310 310 310 310 311 311 311 312 312 312 312 313 313 313 312 315 316 316 316 316 316 317 318 317 312 312 313 312 313 315 313 315 315 316 315 316 317 317 317
310 310 310 310 310 310 310 310 310 310 310 311 311 312 312 312 313 313 314 313 311 314 316 316 316 317 316 317 318 316 311 312 310 309 313 315 315 316 315 316 315 315 317 317 316
311 311 311 311 311 311 311 311 311 311 311 311 311 311 312 312 313 313 315 314 313 313 316 316 316 317 316 317 317 314 315 311 312 313 314 315 314 316 314 313 317 317 317 317 316
312 312 312 312 311 311 312 312 312 312 312 312 312 312 312 313 310 314 314 313 313 313 315 315 316 317 315 315 316 315 315 314 315 316 316 315 316 314 315 316 316 316 316 316 316
311 311 311 311 311 311 311 311 311 311 312 312 313 312 312 312 313 313 314 313 313 313 314 315 315 316 314 313 314 314 314 316 316 316 316 316 315 314 315 315 315 315 315 315 315
314 314 314 314 314 314 314 314 313 313 312 311 311 311 310 309 314 314 314 314 314 314 314 314 314 315 314 314 313 313 313 313 313 314 314 314 314 313 314 314 314 314 314 315 314
315 315 315 315 315 314 314 314 315 316 316 315 314 312 310 312 314 314 314 314 314 314 314 314 314 314 313 311 313 313 312 309 308 311 310 312 311 310 314 314 314 314 314 315 315
318 318 318 317 316 315 313 313 313 314 314 314 314 313 312 313 312 312 312 312 313 313 314 314 313 313 313 312 310 310 309 310 310 308 310 312 311 310 313 312 312 314 314 314 314
321 321 321 320 320 318 317 316 314 312 311 310 311 311 312 315 313 311 309 310 312 312 312 312 312 311 311 308 308 306 309 307 307 308 309 309 310 309 312 311 311 311 312 313 314
324 324 324 324 323 322 322 319 318 313 310 310 309 309 312 314 313 311 311 311 312 312 311 311 311 307 304 307 310 309 307 306 307 309 306 308 308 309 310 310 310 310 310 311 311
323 323 324 324 324 324 323 320 317 312 311 311 313 312 313 311 312 312 313 312 312 312 309 309 307 309 309 307 307 307 306 305 305 306 307 309 309 309 309 309 309 310 310 310 312
324 323 322 323 324 324 323 320 315 312 309 318 318 313 313 311 312 313 312 312 311 310 306 307 309 309 307 306 306 306 307 308 308 307 305 307 309 309 309 310 310 310 310 311 313
324 323 323 323 323 323 323 321 320 309 308 315 314 311 311 310 310 310 311 312 310 308 306 309 310 308 308 308 308 306 307 309 308 306 305 304 307 307 309 307 310 311 310 312 311
323 324 324 323 321 323 323 322 320 315 312 312 309 309 308 308 307 308 310 311 309 310 306 307 307 308 307 309 307 309 307 307 307 307 309 306 310 307 309 308 308 309 310 311 311
322 322 321 320 321 322 322 322 320 313 326 314 308 309 311 308 307 307 309 310 309 308 307 309 307 308 308 309 306 309 307 307 307 306 306 307 306 308 307 308 308 307 310 311 311
319 319 319 320 320 322 322 321 319 318 325 317 307 308 309 309 307 308 309 308 307 307 306 306 306 306 307 306 306 305 306 304 304 305 309 308 308 310 308 310 308 308 312 311 311
314 314 316 318 321 322 321 321 321 323 318 318 311 307 307 307 308 306 308 307 307 311 310 307 306 306 307 308 305 307 307 309 309 307 310 305 306 310 309 310 307 308 307 309 309
311 312 314 318 319 321 320 318 322 319 318 314 314 313 315 311 310 306 306 307 305 306 307 313 319 307 304 308 308 305 307 312 313 313 315 303 312 316 308 310 309 306 306 303 302
309 309 309 310 315 320 319 319 318 315 316 318 318 320 317 313 312 309 306 307 308 305 313 310 309 306 303 305 307 306 307 308 310 309 312 313 310 311 312 306 304 301 298 297 297
307 305 306 307 310 318 317 317 316 314 317 317 320 318 319 316 315 313 312 310 308 305 308 311 316 308 307 305 305 306 306 309 306 310 313 311 311 312 311 305 299 298 296 294 294
303 302 306 307 314 315 314 315 315 316 317 317 318 319 318 318 315 315 317 314 309 309 305 307 310 311 310 307 307 306 306 306 306 309 312 314 314 310 302 299 297 294 292 291 292
299 304 307 313 313 313 313 313 313 314 315 315 316 316 316 315 316 316 316 314 313 307 307 307 311 312 312 309 306 307 310 311 315 314 310 313 314 297 295 295 293 290 290 291 293
303 305 310 312 311 312 312 312 313 313 313 314 314 313 313 314 314 314 314 312 313 312 313 312 311 313 310 308 308 310 310 309 311 311 313 314 314 297 293 293 293 293 291 290 290
300 300 305 310 310 310 309 309 310 310 312 313 312 312 312 312 311 313 313 311 308 308 308 308 311 313 312 308 308 310 309 309 311 312 311 312 312 308 295 292 292 293 292 291 291
298 298 302 304 303 305 306 306 306 307 308 308 308 310 310 311 310 310 310 308 306 306 305 307 311 310 309 309 307 305 304 303 303 305 306 306 305 305 291 291 291 291 292 291 289
296 295 298 298 300 301 303 303 304 305 305 305 305 304 304 306 307 308 308 307 306 303 303 303 307 302 300 302 301 302 301 301 301 301 302 303 304 291 291 291 291 289 292 289 288
293 295 295 294 295 296 296 300 299 300 299 296 297 299 301 299 297 297 297 297 298 300 301 302 303 301 304 300 299 300 298 299 299 299 298 299 293 289 290 290 290 289 291 288 288
Wind_Speed
8 9 10 10 10 11 11 11 10 10 10 10 12 13 13 14 15 16 18 10 7 10 8 7 6 5 5 4 5 5 3 2 5 5 5 3 2 2 3 10 9 12 21 24 26
10 10 11 12 12 12 12 12 12 12 12 12 12 13 15 16 18 20 5 3 5 6 9 8 8 7 4 5 4 4 4 8 6 5 5 5 7 11 4 10 17 18 24 25 25
10 11 13 13 14 14 14 14 14 14 14 15 15 16 16 17 18 1 2 6 4 6 10 9 7 7 4 4 6 5 6 5 7 16 12 7 7 7 3 7 27 25 26 24 25
13 14 14 16 16 16 17 17 16 16 16 16 15 16 17 14 6 1 7 16 13 8 11 10 7 4 3 4 6 3 13 11 5 8 5 6 9 5 14 34 37 38 36 36 35
13 14 15 16 17 17 18 18 18 18 17 17 16 16 17 7 19 22 17 13 9 9 12 13 12 8 4 5 3 4 6 13 19 16 20 21 26 14 26 43 41 38 36 34 33
13 13 14 15 17 18 19 20 20 20 19 19 17 17 18 10 15 10 9 11 11 11 14 15 10 11 4 5 7 3 7 15 11 15 16 10 29 5 24 31 32 32 36 35 35
11 12 13 14 16 17 18 20 22 21 20 20 19 18 22 31 22 23 26 24 18 16 16 16 17 8 3 3 7 4 6 8 7 10 8 7 9 11 33 25 29 37 29 28 33
9 10 12 13 15 16 18 20 21 21 20 19 18 17 19 23 23 24 25 28 23 16 15 13 12 11 10 6 2 2 1 4 4 6 4 11 14 17 35 21 23 25 38 46 46
8 9 11 13 14 16 17 19 20 20 19 17 15 12 12 17 16 17 21 20 15 14 12 6 9 5 4 3 4 2 5 7 9 12 5 8 9 11 19 22 30 39 48 52 51
9 10 11 13 14 15 17 17 17 15 12 8 9 4 16 14 10 10 10 10 8 8 7 6 4 2 3 3 7 8 5 5 6 7 3 7 15 16 32 37 38 40 41 46 43
9 12 13 13 14 17 20 17 8 4 4 7 7 9 12 9 16 10 7 10 8 7 5 3 4 8 15 15 2 4 5 6 8 9 4 23 19 15 23 27 37 39 39 29 36
12 12 14 15 15 16 16 9 9 9 12 19 22 27 31 24 8 13 9 9 8 6 7 4 8 18 3 5 8 6 8 15 7 10 3 12 21 22 18 25 32 34 32 28 32
14 13 12 14 16 16 11 12 15 15 5 12 19 16 13 17 11 15 13 7 5 7 8 8 6 3 5 3 7 3 6 10 9 7 6 8 7 4 6 12 23 25 21 24 23
14 17 15 14 12 8 10 13 15 16 3 7 4 2 3 5 2 5 15 5 2 7 8 6 3 6 4 6 7 7 10 10 5 5 3 6 11 5 7 9 5 13 7 11 14
18 18 16 13 9 8 9 11 11 6 6 4 2 1 2 3 2 2 9 5 3 4 5 7 7 4 4 8 7 10 2 2 2 2 4 2 2 5 3 7 6 6 7 13 21
17 16 16 13 9 7 7 6 6 3 8 4 1 0 1 1 1 3 3 3 1 1 2 6 2 5 7 4 5 5 4 6 4 2 4 8 7 2 4 4 3 7 29 29 27
13 12 10 7 4 0 1 1 2 5 3 3 2 1 1 1 1 2 2 3 5 1 4 1 5 3 3 2 1 3 4 3 3 1 7 1 1 6 7 13 6 9 17 24 28
11 11 11 9 8 7 7 2 10 5 7 0 1 1 4 5 2 3 2 4 6 2 1 3 14 8 5 7 8 7 8 6 7 5 8 3 7 13 7 7 16 25 22 29 30
16 19 20 17 12 12 8 7 6 7 5 0 4 3 3 2 2 2 4 4 4 8 8 5 7 1 5 4 5 4 6 3 2 2 1 9 11 15 14 8 20 24 30 31 33
17 17 20 13 13 18 5 14 7 7 3 3 4 5 5 4 4 2 3 1 4 8 4 3 7 4 3 1 3 5 0 1 2 3 11 8 14 13 15 11 13 17 22 22 28
12 5 6 13 18 13 9 7 8 18 11 5 7 10 13 10 5 4 6 6 5 3 7 3 7 7 3 5 6 0 3 3 3 4 11 13 8 3 7 8 9 10 13 17 24
8 2 7 15 9 6 11 4 6 11 13 4 2 5 10 13 14 11 10 8 3 4 4 5 4 5 10 8 5 5 7 4 4 6 5 11 8 10 9 10 7 4 9 17 22
10 5 11 21 6 9 5 5 8 8 9 4 6 6 2 6 8 9 5 4 7 6 4 2 2 3 5 4 3 3 2 5 2 2 13 11 7 9 9 7 9 7 11 14 17
6 2 4 16 14 2 5 11 11 10 9 13 8 7 6 9 8 10 7 3 2 1 1 3 4 12 14 11 5 9 11 4 5 9 14 14 7 4 7 10 10 10 13 15 21
5 3 3 4 5 6 3 7 5 5 6 1 3 5 3 6 3 5 3 4 4 6 3 3 8 8 13 16 7 3 8 13 13 16 10 17 17 20 2 3 7 14 13 15 20
5 4 4 3 5 2 6 7 15 16 5 15 11 12 6 7 7 11 4 4 8 1 2 2 7 2 6 6 7 13 16 19 20 19 16 19 23 4 5 6 9 13 7 13 23
5 5 2 2 3 4 4 3 1 2 3 8 4 4 3 2 3 3 5 8 4 3 3 3 2 3 16 2 6 9 15 14 15 18 9 15 4 2 3 6 9 10 4 12 23
Wind_Direction
326 327 328 329 329 328 326 324 324 323 321 323 325 326 327 326 321 314 306 285 271 238 232 220 211 206 189 189 179 160 75 216 247 174 249 272 284 252 239 267 253 252 260 279 286
314 315 316 316 317 317 317 315 314 312 311 312 314 317 320 322 319 313 318 319 255 245 232 231 218 201 187 190 188 152 142 221 215 201 226 258 263 282 249 259 267 268 280 284 283
302 304 306 306 307 308 307 306 306 306 305 306 310 313 317 326 322 221 54 11 353 252 224 221 219 201 204 198 201 181 204 218 243 242 258 261 269 268 219 260 272 273 296 298 283
293 296 297 298 299 299 299 299 299 299 298 299 302 306 309 315 301 181 302 310 304 260 224 217 202 197 199 214 212 221 241 235 249 250 269 261 281 240 246 267 289 294 294 291 288
290 291 293 294 295 295 295 293 291 290 290 291 294 296 300 281 270 288 287 285 278 259 236 227 209 202 193 205 212 220 250 255 261 263 268 279 275 263 258 283 292 293 293 293 292
291 294 296 297 298 299 300 298 294 291 289 286 285 285 284 245 281 283 279 274 269 256 237 226 219 226 257 222 187 245 265 278 281 270 259 232 271 253 272 284 293 294 296 299 296
298 300 303 303 303 302 302 300 297 295 292 288 284 279 275 266 273 273 275 275 263 258 245 237 227 198 181 259 226 244 296 312 228 263 226 203 286 239 275 282 285 291 291 298 300
310 313 313 310 309 309 309 304 300 296 292 287 280 271 265 279 275 265 260 261 259 252 245 242 230 228 234 250 324 263 111 296 249 175 223 167 259 272 290 287 279 285 291 293 292
319 321 321 319 319 318 321 315 311 303 293 285 269 243 262 268 275 270 261 255 260 242 225 209 186 208 223 100 10 320 240 221 308 232 142 186 255 260 294 303 290 288 289 293 292
314 314 316 318 321 322 329 324 314 302 295 285 247 230 248 257 263 267 256 230 219 195 151 162 145 116 47 99 241 235 226 247 252 287 191 213 247 278 285 291 283 285 282 285 292
305 310 311 315 323 336 341 349 348 327 327 280 269 235 285 277 268 270 237 184 169 164 153 139 112 214 220 206 162 259 234 253 261 267 291 283 280 276 276 268 274 279 280 286 299
277 287 308 317 320 331 348 13 353 306 300 286 269 255 257 252 254 250 211 177 168 171 119 64 207 223 156 165 230 251 280 271 278 265 174 272 287 283 263 267 261 268 282 297 307
274 280 295 304 312 322 344 346 341 336 262 278 251 257 258 247 234 245 206 207 159 164 191 193 217 130 177 195 246 206 230 267 259 326 254 313 269 252 269 248 275 277 291 305 319
277 280 285 294 309 319 333 338 340 340 319 277 261 255 218 194 260 218 196 204 202 227 159 228 275 185 155 211 171 260 233 249 278 357 279 26 300 215 254 278 294 322 343 9 24
267 270 280 289 289 318 327 336 343 359 293 262 256 253 175 176 153 44 190 201 218 189 128 249 173 163 171 216 155 224 171 248 135 181 340 12 311 272 228 266 303 337 19 25 25
272 276 279 278 287 299 318 333 339 37 247 309 170 321 95 181 95 116 139 166 122 192 282 246 320 184 219 219 193 111 88 47 54 77 294 217 191 32 157 209 326 334 341 353 9
272 279 269 265 265 322 285 73 351 225 341 284 293 36 349 248 101 132 141 183 190 204 236 199 223 248 188 142 26 113 77 317 332 37 225 227 240 239 295 292 354 327 358 22 8
274 272 267 244 235 234 195 95 237 184 226 87 270 1 222 169 202 125 116 274 236 169 182 197 283 182 169 207 194 184 171 176 212 224 259 151 246 267 205 4 321 54 33 28 26
269 269 265 263 237 207 191 224 226 183 195 277 325 277 269 321 204 140 208 243 255 193 225 205 267 25 216 156 159 165 196 252 339 55 317 255 269 297 306 63 49 40 33 21 24
266 261 261 254 232 210 214 230 223 192 134 54 222 223 256 200 182 182 207 203 266 200 134 277 299 203 341 15 227 177 260 217 346 220 241 220 244 256 295 65 34 21 17 15 18
258 246 222 198 191 194 228 237 245 245 252 249 243 274 283 297 228 204 207 241 211 264 216 194 191 259 88 204 208 52 248 239 272 199 263 265 249 264 91 70 54 29 20 18 15
188 175 180 180 180 205 235 207 228 274 299 288 314 237 256 273 277 272 256 212 258 200 214 233 185 196 243 250 207 208 221 180 232 256 254 261 262 93 106 94 68 65 37 23 9
167 194 171 184 220 223 240 253 254 263 241 229 254 255 217 276 288 249 268 320 288 239 236 214 246 295 306 325 39 168 227 216 219 105 248 265 261 145 92 54 25 7 23 23 20
165 138 196 209 230 266 233 261 254 264 264 232 245 245 265 269 246 273 271 291 287 325 299 77 218 240 253 246 284 269 260 236 222 261 264 252 268 277 349 348 1 350 341 351 356
171 204 179 203 265 250 237 274 253 282 251 124 276 232 277 272 280 235 289 14 328 313 307 217 262 247 258 265 278 243 285 281 272 266 257 277 281 282 199 278 305 320 321 343 345
165 149 171 241 266 210 207 242 249 264 246 273 248 289 281 263 259 296 292 229 253 303 279 207 262 207 259 249 235 271 272 263 268 274 267 258 258 128 221 262 292 316 304 338 338
188 176 164 235 173 146 217 223 91 358 92 73 46 324 302 127 86 319 301 299 288 287 229 260 280 217 266 275 317 270 245 260 263 263 270 260 263 189 265 238 260 306 234 315 327